• Join FlightAware (Why Join?)
  • Login
  • US Flag 
12:25AM EST


 

Airport Tracker/Info


-or-


 

Live Flight TrackerFlight Track Log ✈ ASH3770 ✈ 03-May-2013 ✈ KORD - KBDL

Flight Track Log - Related Links

Times and Time Zones

All times are in EDT time to prevent confusion due to time zone crossing. See the ASH3770 flight status page for this flight to view local times or setup timezone preferences in your user account.

Time Position Orientation Groundspeed Altitude Reporting Facility
EDT Latitude Longitude Course Direction KTS MPH feet Rate Location/Type
11:31PM 42.0167 -87.8500 77° East 161 185 3,000  Level Chicago TRACON
11:32PM 42.0500 -87.7833 56° Northeast 248 285 4,700 1,098 Climbing Chicago TRACON
11:34PM 42.0944 -87.6350 68° East 259 298 6,000 1,500 Climbing Chicago Center
11:35PM 42.0972 -87.5333 88° East 267 307 9,000 3,049 Climbing Chicago Center
11:36PM 42.1008 -87.4281 87° East 278 320 12,200 2,231 Climbing Chicago Center
11:37PM 42.1020 -87.0211 77° East  Level FlightAware Approximate
11:37PM 42.1042 -87.3183 88° East 293 337 13,500  Level Chicago Center
11:38PM 42.1083 -87.1553 88° East 358 412 14,700 1,475 Climbing Chicago Center
11:39PM 42.1136 -87.0072 87° East 392 451 16,500 1,967 Climbing Chicago Center
11:40PM 42.1197 -86.8614 87° East 394 453 18,700 1,967 Climbing Chicago Center
11:41PM 42.1253 -86.7161 87° East 389 448 20,500 1,574 Climbing Chicago Center
11:42PM 42.1292 -86.5792 88° East 395 455 21,900 1,180 Climbing Chicago Center
11:43PM 42.1344 -86.4258 87° East 407 468 22,900 984 Climbing Chicago Center
11:44PM 42.1392 -86.2672 88° East 421 484 23,900 984 Climbing Chicago Center
11:45PM 42.1442 -86.1031 88° East 436 502 24,900 1,033 Climbing Chicago Center
11:46PM 42.1422 -85.9178 91° East 442 509 26,000 1,082 Climbing Chicago Center
11:47PM 42.1411 -85.7494 90° East 451 519 27,100 984 Climbing Chicago Center
11:48PM 42.1397 -85.5842 91° East 447 514 28,000 984 Climbing Chicago Center
11:49PM 42.1372 -85.4169 91° East 450 518 29,100 976 Climbing Chicago Center
11:50PM 42.1347 -85.2508 91° East 447 514 30,000 976 Climbing Chicago Center
11:51PM 42.1347 -85.0817 90° East 453 521 31,100 1,033 Climbing Chicago Center
11:52PM 42.1325 -84.9150 91° East 448 516 32,100 1,062 Climbing Chicago Center
11:53PM 42.1306 -84.6881 91° East 444 511 33,400 1,062 Climbing Cleveland Center
11:55PM 42.1278 -84.5256 91° East 439 505 34,400 900 Climbing Cleveland Center
11:55PM 42.1342 -84.3944 86° East 439 505 35,200 1,008 Climbing Cleveland Center
11:56PM 42.1506 -84.2131 83° East 445 512 36,400 900 Climbing Cleveland Center
11:57PM 42.1578 -84.0511 87° East 439 505 37,000 298 Climbing Cleveland Center
11:59PM 42.1625 -83.8861 88° East 439 505 37,000  Level Cleveland Center
11:59PM 42.1672 -83.7208 88° East 439 505 37,000  Level Cleveland Center
12:00AM 42.1739 -83.5447 87° East 444 511 37,000  Level Cleveland Center
12:01AM 42.1783 -83.3739 88° East 456 525 37,000  Level Cleveland Center
12:03AM 42.1803 -83.2003 89° East 462 532 37,000  Level Cleveland Center
12:03AM 42.1842 -83.0267 88° East 462 532 37,000  Level Cleveland Center
12:04AM 42.1897 -82.8558 87° East 457 526 37,000  Level Cleveland Center
12:05AM 42.1908 -82.6850 89° East 457 526 37,000  Level Cleveland Center
12:06AM 42.1939 -82.5114 89° East 457 526 37,000  Level Cleveland Center
12:07AM 42.1967 -82.3433 89° East 457 526 37,000  Level Cleveland Center
12:08AM 42.1969 -82.1694 90° East 462 532 37,000  Level Cleveland Center
12:09AM 42.2036 -81.9792 87° East 459 528 37,000  Level Cleveland Center
12:10AM 42.2078 -81.8081 88° East 459 528 37,000  Level Cleveland Center
12:12AM 42.2094 -81.6317 89° East 459 528 37,000  Level Cleveland Center
12:12AM 42.2086 -81.4747 90° East 459 528 37,000  Level Cleveland Center
12:13AM 42.2078 -81.2981 90° East 459 528 37,000  Level Cleveland Center
12:14AM 42.2108 -81.1186 89° East 459 528 37,000  Level Cleveland Center
12:15AM 42.2117 -80.9419 90° East 464 534 37,000  Level Cleveland Center
12:16AM 42.2142 -80.7681 89° East 459 528 37,000  Level Cleveland Center
12:17AM 42.2100 -80.5692 92° East 465 535 37,000  Level Cleveland Center
12:19AM 42.2119 -80.3953 89° East 470 541 37,000  Level Cleveland Center
12:19AM 42.2094 -80.2131 91° East 476 548 37,000  Level Cleveland Center
12:20AM 42.2108 -80.0336 89° East 476 548 37,000  Level Cleveland Center
12:21AM 42.2100 -79.8544 90° East 476 548 37,000  Level Cleveland Center
12:22AM 42.2086 -79.6750 91° East 476 548 37,000  Level Cleveland Center
12:23AM 42.2092 -79.4956 90° East 476 548 37,000  Level Cleveland Center
12:24AM 42.2075 -79.3300 91° East 476 548 37,000  Level Cleveland Center
12:25AM 42.2053 -79.1536 91° East 476 548 37,000  Level Cleveland Center
12:26AM 42.2031 -78.9769 91° East 476 548 37,000  Level Cleveland Center
12:27AM 42.2006 -78.8033 91° East 471 542 37,000  Level Cleveland Center
12:28AM 42.1978 -78.6269 91° East 471 542 37,000  Level Cleveland Center
12:29AM 42.1947 -78.4531 91° East 471 542 37,000  Level Cleveland Center
12:30AM 42.1911 -78.2739 91° East 471 542 37,000  Level Cleveland Center
12:32AM 42.2231 -78.1044 76° East 462 532 37,000  Level Cleveland Center
12:33AM 42.2672 -77.9400 70° East 462 532 37,000  Level Cleveland Center
12:33AM 42.3092 -77.7725 71° East 462 532 37,000  Level Cleveland Center
12:34AM 42.3511 -77.6161 70° East 457 526 37,000  Level Cleveland Center
12:35AM 42.3953 -77.4650 68° East 444 511 37,000  Level Cleveland Center
12:37AM 42.4389 -77.3108 69° East 431 496 37,000 -603 Level Cleveland Center
12:39AM 42.4878 -76.9542 79° East 435 501 35,100 -638 Descending Boston Center
12:40AM 42.5022 -76.7975 83° East 435 501 35,000 -50 Descending Boston Center
12:41AM 42.4939 -76.6306 94° East 430 495 35,000 -350 Level Boston Center
12:42AM 42.4750 -76.4631 99° East 441 507 34,300 -1,100 Descending Boston Center
12:43AM 42.4536 -76.2986 100° East 446 513 32,800 -1,500 Descending Boston Center
12:44AM 42.4342 -76.1342 99° East 446 513 31,300 -1,500 Descending Boston Center
12:45AM 42.4103 -75.9667 101° East 451 519 29,800 -1,500 Descending Boston Center
12:46AM 42.3903 -75.7997 99° East 451 519 28,300 -1,500 Descending Boston Center
12:47AM 42.3697 -75.6439 100° East 436 502 26,800 -1,500 Descending Boston Center
12:48AM 42.3489 -75.4967 101° East 414 476 25,300 -1,500 Descending Boston Center
12:49AM 42.3319 -75.3497 99° East 399 459 23,800 -1,500 Descending Boston Center
12:50AM 42.3106 -75.2000 101° East 399 459 22,300 -1,500 Descending Boston Center
12:51AM 42.2911 -75.0589 101° East 393 452 20,800 -1,500 Descending Boston Center
12:52AM 42.2731 -74.9289 101° East 367 422 19,300 -1,400 Descending Boston Center
12:53AM 42.2528 -74.7992 102° East 353 406 18,000 -650 Descending Boston Center
12:54AM 42.2347 -74.6694 101° East 353 406 18,000  Level Boston Center
12:55AM 42.2183 -74.5369 99° East 358 412 18,000  Level Boston Center
12:56AM 42.1961 -74.3878 101° East 363 418 18,000  Level Boston Center
12:57AM 42.1775 -74.2528 100° East 363 418 18,000 -600 Level Boston Center
12:58AM 42.1586 -74.1206 101° East 363 418 16,800 -1,100 Descending Boston Center
12:59AM 42.1417 -74.0025 101° East 354 407 15,800 -1,100 Descending Boston Center
01:00AM 42.1206 -73.8619 101° East 354 407 14,600 -1,100 Descending Boston Center
01:01AM 42.1033 -73.7442 101° East 354 407 13,600 -1,050 Descending Boston Center
01:02AM 42.0797 -73.5925 102° East 359 413 12,500 -1,171 Descending Boston Center
01:02AM 42.0719 -73.5392 101° East 383 441 12,000 -1,100 Descending Boston Center
01:03AM 42.0603 -73.4550 101° East 372 428 11,400 -982 Descending Boston Center
01:03AM 42.0522 -73.4131 104° East 375 432 11,100 -400 Descending Boston Center
01:04AM 42.0467 -73.3597 98° East 372 428 11,000 -100 Descending Boston Center
01:04AM 42.0306 -73.2786 105° East 373 429 11,000 -100 Level Boston Center
01:05AM 42.0186 -73.1833 100° East 372 428 10,900 -295 Descending Boston Center
01:05AM 42.0106 -73.1469 107° East 352 405 10,700 -1,300 Descending Boston Center
01:06AM 42.0047 -73.0828 97° East 330 380 9,600 -1,869 Descending Boston Center
01:06AM 41.9925 -73.0492 116° Southeast 283 326 8,800 -2,500 Descending Boston Center
01:07AM 41.9550 -73.0039 138° Southeast 238 274 7,100 -2,727 Descending Boston Center
01:07AM 41.9261 -72.9814 150° Southeast 260 299 5,800 -2,600 Descending Boston Center
01:08AM 41.8969 -72.9450 137° Southeast 250 288 4,500 -1,475 Descending Boston Center
01:08AM 41.8722 -72.9225 146° Southeast 247 284 4,300 -500 Descending Boston Center
01:09AM 41.8450 -72.8944 142° Southeast 249 287 4,000 -1,000 Descending Boston Center
01:09AM 41.8369 -72.8719 116° Southeast 194 223 3,400 -1,500 Descending Boston Center
01:10AM 41.8350 -72.8303 94° East 198 228 2,500 -885 Descending Boston Center
01:10AM 41.8497 -72.8108 45° Northeast 189 217 2,500 -500 Level Boston Center
01:11AM 41.8683 -72.7775 53° Northeast 154 177 2,000 -885 Descending Boston Center
01:11AM 41.8811 -72.7636 39° Northeast 179 206 1,600 -800 Descending Boston Center
01:12AM 41.8978 -72.7386 48° Northeast 142 163 1,200 -700 Descending Boston Center
01:12AM 41.9081 -72.7303 31° Northeast 138 159 900 -700 Descending Boston Center
01:13AM 41.9269 -72.7053 45° Northeast 137 158 500 -245 Descending Boston Center
01:14AM 41.9458 -72.6717 53° Northeast 137 158 500 8,750 Level Boston Center
01:15AM 41.9731 -72.6356 45° Northeast 137 158 18,000 8,750 Climbing Boston Center
01:16AM 41.9981 -72.6022 45° Northeast 137 158 18,000  Level Boston Center
01:17AM 42.0253 -72.5658 45° Northeast 137 158 18,000  Level Boston Center